| time (UTC) | temp C | wind direction | speed KPH | gust KPH | rain 1hr cm | rain 24hr cm | rain mn cm | humidity % | barometer mb |
| 20260507083004 | 6 | 360 | 20.9 | 0.0 | 0.00 | 0.00 | 0.00 | 81 | 1015.1 |
| 20260507081547 | 6 | 360 | 19.3 | 0.0 | 0.00 | 0.00 | 0.00 | 80 | 1015.3 |
| 20260507080010 | 6 | 360 | 19.3 | 0.0 | 0.00 | 0.00 | 0.00 | 79 | 1015.4 |
| 20260507074536 | 7 | 360 | 19.3 | 0.0 | 0.00 | 0.00 | 0.00 | 79 | 1015.6 |
| 20260507073055 | 7 | 360 | 19.3 | 0.0 | 0.00 | 0.00 | 0.00 | 78 | 1015.8 |
| 20260507071529 | 7 | 360 | 22.5 | 0.0 | 0.00 | 0.00 | 0.00 | 77 | 1016.0 |
| 20260507070017 | 7 | 360 | 20.9 | 0.0 | 0.00 | 0.00 | 0.00 | 77 | 1016.1 |
| 20260507064551 | 7 | 360 | 20.9 | 0.0 | 0.00 | 0.00 | 0.00 | 75 | 1016.3 |
| 20260507063002 | 7 | 360 | 19.3 | 0.0 | 0.00 | 0.00 | 0.00 | 74 | 1016.5 |
| 20260507061544 | 8 | 360 | 20.9 | 0.0 | 0.00 | 0.00 | 0.00 | 72 | 1016.6 |
| 20260507060029 | 7 | 360 | 19.3 | 0.0 | 0.00 | 0.00 | 0.00 | 72 | 1016.7 |
| 20260507054551 | 8 | 360 | 20.9 | 0.0 | 0.00 | 0.00 | 0.00 | 70 | 1016.7 |
| 20260507053048 | 8 | 360 | 19.3 | 0.0 | 0.00 | 0.00 | 0.00 | 70 | 1016.7 |
| 20260507051505 | 8 | 360 | 19.3 | 0.0 | 0.00 | 0.00 | 0.00 | 66 | 1016.8 |
| 20260507050032 | 8 | 360 | 19.3 | 0.0 | 0.00 | 0.00 | 0.00 | 65 | 1016.8 |
| 20260507044550 | 7 | 360 | 17.7 | 0.0 | 0.00 | 0.00 | 0.00 | 64 | 1017.0 |
| 20260507043025 | 7 | 360 | 14.5 | 0.0 | 0.00 | 0.00 | 0.00 | 65 | 1017.2 |
| 20260507041541 | 7 | 360 | 14.5 | 0.0 | 0.00 | 0.00 | 0.00 | 63 | 1017.2 |
| 20260507040101 | 7 | 360 | 14.5 | 0.0 | 0.00 | 0.00 | 0.00 | 62 | 1017.2 |
| 20260507034524 | 7 | 360 | 14.5 | 0.0 | 0.00 | 0.00 | 0.00 | 60 | 1017.3 |
| 20260507033106 | 7 | 360 | 12.9 | 0.0 | 0.00 | 0.00 | 0.00 | 57 | 1017.5 |
| 20260507031543 | 8 | 360 | 12.9 | 0.0 | 0.00 | 0.00 | 0.00 | 55 | 1017.4 |
| 20260507030025 | 8 | 360 | 12.9 | 0.0 | 0.00 | 0.00 | 0.00 | 52 | 1017.4 |
| 20260507024556 | 8 | 360 | 9.7 | 0.0 | 0.00 | 0.00 | 0.00 | 50 | 1017.4 |
| 20260507023003 | 8 | 360 | 11.3 | 0.0 | 0.00 | 0.00 | 0.00 | 49 | 1017.3 |
| 20260507021525 | 8 | 360 | 9.7 | 0.0 | 0.00 | 0.00 | 0.00 | 49 | 1017.0 |
| 20260507020010 | 8 | 360 | 8.0 | 0.0 | 0.00 | 0.00 | 0.00 | 47 | 1016.9 |
| 20260507014557 | 10 | 360 | 9.7 | 0.0 | 0.00 | 0.00 | 0.00 | 41 | 1016.8 |
| 20260507013010 | 11 | 360 | 6.4 | 0.0 | 0.00 | 0.00 | 0.00 | 38 | 1016.8 |
| 20260507011539 | 12 | 360 | 4.8 | 0.0 | 0.00 | 0.00 | 0.00 | 35 | 1016.8 |
| 20260507010002 | 13 | 245 | 8.0 | 0.0 | 0.00 | 0.00 | 0.00 | 34 | 1016.9 |
| 20260507004529 | 14 | 227 | 16.1 | 0.0 | 0.00 | 0.00 | 0.00 | 33 | 1016.9 |
| 20260507003059 | 14 | 248 | 6.4 | 0.0 | 0.00 | 0.00 | 0.00 | 34 | 1017.0 |
| 20260507001536 | 15 | 271 | 6.4 | 0.0 | 0.00 | 0.00 | 0.00 | 32 | 1017.0 |
| 20260506234519 | 15 | 248 | 24.1 | 0.0 | 0.00 | 0.00 | 0.00 | 31 | 1017.2 |
| 20260506233056 | 15 | 259 | 6.4 | 0.0 | 0.00 | 0.00 | 0.00 | 35 | 1017.2 |
| 20260506231512 | 14 | 292 | 3.2 | 0.0 | 0.00 | 0.00 | 0.00 | 33 | 1017.4 |
| 20260506230106 | 14 | 280 | 9.7 | 0.0 | 0.00 | 0.00 | 0.00 | 35 | 1017.6 |
| 20260506224535 | 15 | 274 | 6.4 | 0.0 | 0.00 | 0.00 | 0.00 | 34 | 1017.7 |
| 20260506223009 | 15 | 271 | 11.3 | 0.0 | 0.00 | 0.00 | 0.00 | 33 | 1017.8 |
| 20260506221552 | 15 | 267 | 4.8 | 0.0 | 0.00 | 0.00 | 0.00 | 34 | 1017.9 |
| 20260506220027 | 15 | 242 | 8.0 | 0.0 | 0.00 | 0.00 | 0.00 | 33 | 1018.1 |
| 20260506214554 | 15 | 265 | 6.4 | 0.0 | 0.00 | 0.00 | 0.00 | 34 | 1018.2 |
| 20260506213022 | 15 | 291 | 12.9 | 0.0 | 0.00 | 0.00 | 0.00 | 31 | 1018.4 |
| 20260506211514 | 16 | 271 | 17.7 | 0.0 | 0.00 | 0.00 | 0.00 | 30 | 1018.5 |
| 20260506204504 | 16 | 223 | 22.5 | 0.0 | 0.00 | 0.00 | 0.00 | 30 | 1018.8 |
| 20260506203106 | 16 | 224 | 22.5 | 0.0 | 0.00 | 0.00 | 0.00 | 31 | 1019.2 |
| 20260506201539 | 15 | 190 | 14.5 | 0.0 | 0.00 | 0.00 | 0.00 | 34 | 1019.2 |
| 20260506194539 | 14 | 328 | 8.0 | 0.0 | 0.00 | 0.00 | 0.00 | 36 | 1019.5 |
| 20260506193053 | 14 | 244 | 11.3 | 0.0 | 0.00 | 0.00 | 0.00 | 36 | 1019.7 |
| 20260506191522 | 15 | 266 | 12.9 | 0.0 | 0.00 | 0.00 | 0.00 | 33 | 1019.7 |
| 20260506190026 | 13 | 274 | 9.7 | 0.0 | 0.00 | 0.00 | 0.00 | 34 | 1019.8 |
| 20260506184606 | 14 | 242 | 17.7 | 0.0 | 0.00 | 0.00 | 0.00 | 34 | 1019.9 |
| 20260506183042 | 14 | 302 | 16.1 | 0.0 | 0.00 | 0.00 | 0.00 | 34 | 1020.3 |
| 20260506181517 | 14 | 259 | 9.7 | 0.0 | 0.00 | 0.00 | 0.00 | 36 | 1020.1 |
| 20260506180052 | 15 | 275 | 8.0 | 0.0 | 0.00 | 0.00 | 0.00 | 37 | 1020.4 |
| 20260506174526 | 14 | 304 | 6.4 | 0.0 | 0.00 | 0.00 | 0.00 | 35 | 1020.5 |
| 20260506173134 | 13 | 280 | 12.9 | 0.0 | 0.00 | 0.00 | 0.00 | 39 | 1020.7 |
| 20260506171551 | 13 | 236 | 4.8 | 0.0 | 0.00 | 0.00 | 0.00 | 36 | 1020.6 |
| 20260506170013 | 13 | 184 | 12.9 | 0.0 | 0.00 | 0.00 | 0.00 | 36 | 1021.0 |
| 20260506164605 | 12 | 309 | 6.4 | 0.0 | 0.00 | 0.00 | 0.00 | 39 | 1021.0 |
| 20260506163005 | 12 | 223 | 6.4 | 0.0 | 0.00 | 0.00 | 0.00 | 39 | 1021.0 |
| 20260506161554 | 12 | 335 | 9.7 | 0.0 | 0.00 | 0.00 | 0.00 | 39 | 1021.1 |
| 20260506160023 | 11 | 253 | 4.8 | 0.0 | 0.00 | 0.00 | 0.00 | 41 | 1021.2 |
| 20260506154516 | 12 | 329 | 4.8 | 0.0 | 0.00 | 0.00 | 0.00 | 40 | 1021.1 |
| 20260506153005 | 11 | 296 | 6.4 | 0.0 | 0.00 | 0.00 | 0.00 | 43 | 1021.1 |
| 20260506151545 | 10 | 242 | 4.8 | 0.0 | 0.00 | 0.00 | 0.00 | 41 | 1021.1 |
| 20260506150014 | 10 | 252 | 3.2 | 0.0 | 0.00 | 0.00 | 0.00 | 44 | 1020.9 |
| 20260506144554 | 10 | 302 | 3.2 | 0.0 | 0.00 | 0.00 | 0.00 | 48 | 1021.0 |
| 20260506143030 | 9 | 237 | 1.6 | 0.0 | 0.00 | 0.00 | 0.00 | 48 | 1021.0 |
| 20260506141504 | 8 | 264 | 1.6 | 0.0 | 0.00 | 0.00 | 0.00 | 47 | 1021.0 |
| 20260506140054 | 9 | 115 | 0.0 | 0.0 | 0.00 | 0.00 | 0.00 | 52 | 1020.9 |
| 20260506134537 | 8 | 242 | 1.6 | 0.0 | 0.00 | 0.00 | 0.00 | 52 | 1020.8 |
| 20260506133008 | 8 | 298 | 1.6 | 0.0 | 0.00 | 0.00 | 0.00 | 55 | 1020.6 |
| 20260506131546 | 7 | 325 | 1.6 | 0.0 | 0.00 | 0.00 | 0.00 | 61 | 1020.4 |
| 20260506130016 | 6 | 360 | 1.6 | 0.0 | 0.00 | 0.00 | 0.00 | 65 | 1020.3 |
| 20260506124558 | 5 | 284 | 1.6 | 0.0 | 0.00 | 0.00 | 0.00 | 69 | 1020.2 |
| 20260506123027 | 5 | 360 | 1.6 | 0.0 | 0.00 | 0.00 | 0.00 | 71 | 1019.8 |
| 20260506121608 | 4 | 360 | 1.6 | 0.0 | 0.00 | 0.00 | 0.00 | 73 | 1019.7 |
| 20260506120032 | 3 | 360 | 0.0 | 0.0 | 0.00 | 0.00 | 0.00 | 71 | 1019.3 |
| 20260506114531 | 3 | 360 | 1.6 | 0.0 | 0.00 | 0.00 | 0.00 | 70 | 1019.1 |
| 20260506113015 | 3 | 360 | 1.6 | 0.0 | 0.00 | 0.00 | 0.00 | 68 | 1019.0 |
| 20260506111554 | 4 | 360 | 1.6 | 0.0 | 0.00 | 0.00 | 0.00 | 67 | 1018.7 |
| 20260506110027 | 4 | 360 | 1.6 | 0.0 | 0.00 | 0.00 | 0.00 | 66 | 1018.7 |
| 20260506104519 | 5 | 360 | 1.6 | 0.0 | 0.00 | 0.00 | 0.00 | 64 | 1018.8 |
| 20260506103021 | 5 | 360 | 0.0 | 0.0 | 0.00 | 0.00 | 0.00 | 65 | 1018.6 |
| 20260506101553 | 5 | 360 | 0.0 | 0.0 | 0.00 | 0.00 | 0.00 | 64 | 1018.7 |
| 20260506094507 | 5 | 360 | 0.0 | 0.0 | 0.00 | 0.00 | 0.00 | 65 | 1018.6 |
| 20260506093113 | 5 | 360 | 0.0 | 0.0 | 0.00 | 0.00 | 0.00 | 64 | 1018.5 |
| 20260506091533 | 5 | 360 | 0.0 | 0.0 | 0.00 | 0.00 | 0.00 | 64 | 1018.3 |
| 20260506090002 | 5 | 360 | 0.0 | 0.0 | 0.00 | 0.00 | 0.00 | 62 | 1018.2 |
| 20260506084601 | 5 | 360 | 0.0 | 0.0 | 0.00 | 0.00 | 0.00 | 61 | 1017.8 |